Location: Niverville
(49.6028°N, 97.0419°W)
Time: 17:33:42
(UTC-05:00)

Daily predictions for brighter satellites

Satellite Brightness Start Highest point End
(mag) Time Altitude Azimuth Time Altitude Azimuth Time Altitude Azimuth
Cosmos 1500 Rocket 4.1 22:16:23 10° SSW 22:20:44 65° WNW 22:25:10 10° N
SeaSat 1 4.5 22:18:27 10° E 22:21:53 19° NE 22:25:19 10° N
Cosmos 968 Rocket 4.2 22:17:01 10° SW 22:22:10 62° WNW 22:27:24 10° NNE
deb Chang Zheng 4 4.2 22:18:25 10° N 22:22:43 62° WNW 22:26:59 10° SSW
NOAA 11 4.4 22:17:42 10° SSE 22:23:02 62° ENE 22:28:27 10° N
NOSS 3-1 (A) 4.5 22:25:22 10° SSE 22:30:03 25° ESE 22:35:07 10° ENE
Meteor 1-4 Rocket 3.6 22:27:08 10° N 22:30:38 33° ENE 22:34:03 10° SE
Aureole 3 4.4 22:27:13 10° S 22:33:49 72° E 22:39:02 10° NNE
MetOp-B 4.5 22:28:39 10° S 22:33:58 68° WSW 22:39:20 10° NNW
Cosmos 2242 Rocket 4.2 22:30:28 10° N 22:34:44 42° ENE 22:39:00 10° SE
Cosmos 1674 3.2 22:32:19 10° SSW 22:36:07 65° W 22:40:00 10° N
SPOT 5 3.8 22:36:44 10° S 22:41:06 44° W 22:45:44 10° NNW
Envisat 4.3 22:36:56 10° SSW 22:41:38 37° W 22:46:22 10° NNW
Cosmos 1300 2.7 22:38:06 10° N 22:41:58 81° E 22:45:48 10° SSE
Cosmos 1626 4.3 22:40:38 10° ESE 22:42:29 13° E 22:44:20 10° NE
SL-08 RB Rocket 3.7 22:41:06 10° SSE 22:45:35 83° ENE 22:50:07 10° NNW
Cosmos 2227 Rocket 3.8 22:42:34 10° SE 22:46:03 17° E 22:49:33 10° ENE
DELTA 2 DEB (DPAF) 4.3 22:42:57 10° SSE 22:47:25 69° ENE 22:51:54 10° N
Cosmos 1437 3.1 22:44:15 10° SSW 22:47:32 70° WNW 22:50:50 10° N
Cosmos 2333 Rocket 2.8 22:44:07 10° NNW 22:49:42 50° NE 22:55:11 11° SE
Cosmos 1833 4.4 22:44:56 10° SSW 22:50:39 82° WNW 22:56:22 10° NNE
USA 245 3.1 22:48:24 10° S 22:50:53 41° WSW 22:53:07 10° NNW
ATLAS 2AS CENTAUR R/B 4.3 22:48:09 10° SE 22:53:06 19° ESE 22:58:18 10° ENE
SL-16 R/B 3.7 22:48:52 10° NNW 22:53:42 27° NE 22:58:29 10° ESE
Cosmos 2298 Rocket 4.4 22:50:03 10° S 22:55:06 47° ESE 23:00:13 10° NNE
AVUM R/B 4.0 22:54:39 10° SW 22:56:58 41° NW 22:59:31 10° NNE
CARTOSAT-1 3.8 22:54:18 12° SSE 22:58:12 59° ENE 23:02:28 10° N
COSMOS 2428 3.0 22:55:48 10° NNW 23:01:26 65° WSW 23:06:47 11° SSE
Sich 1 3.1 22:57:22 10° S 23:01:45 63° E 23:06:07 10° NNE
YAOGAN 6 4.1 22:59:08 10° SSW 23:02:28 33° W 23:05:47 10° NNW
Cosmos 2151 3.8 22:58:24 10° SSW 23:02:29 50° WNW 23:06:37 10° N
Cosmos 1633 Rocket 3.1 22:58:24 10° S 23:02:43 61° E 23:07:03 10° NNE
Cosmos 1937 Rocket 4.2 22:58:30 10° SSE 23:03:12 35° ESE 23:07:54 10° NE
Cosmos 1869 4.4 23:01:03 10° N 23:04:42 32° ENE 23:07:41 14° SE
Cosmos 1455 3.1 23:01:15 10° N 23:04:47 36° ENE 23:07:33 15° SE
ATLAS 5 CENTAUR R/B 4.4 23:01:17 10° W 23:05:42 28° NNW 23:10:28 10° NE
CZ-4C R/B 3.1 23:05:06 12° S 23:08:13 73° WSW 23:11:43 10° NNW
ATLAS 3B R/B 3.4 23:01:47 10° NW 23:08:49 50° NE 23:15:23 10° ESE
Cosmos 2297 Rocket 3.6 23:10:25 13° SE 23:13:22 20° E 23:17:17 10° NE
H-2A R/B 2.2 23:10:13 13° SSE 23:15:06 90° SSW 23:20:36 10° NNW
Lacrosse 4 Rocket 3.2 23:11:24 10° NNW 23:15:11 27° NE 23:19:00 10° ESE
Cosmos 1805 Rocket 4.1 23:12:24 10° SSW 23:16:50 62° WNW 23:21:15 10° N
NOSS 3-1 (C) 3.5 23:11:25 10° SSW 23:17:15 60° SE 23:23:48 10° NE
Cosmos 2219 Rocket 2.2 23:12:12 10° NNW 23:17:50 88° SW 23:22:26 16° SSE
Landsat 7 4.2 23:18:17 12° S 23:22:40 63° WSW 23:27:25 10° NNW
ARGOS 4.1 23:19:13 10° S 23:24:21 43° W 23:29:30 10° NNW
BREEZE-M DEB (TANK) 2.2 23:24:09 10° W 23:26:05 42° SSW 23:27:41 20° SE
Cosmos 2058 4.0 23:24:09 10° SSW 23:28:04 43° WNW 23:32:01 10° N
Cosmos 292 Rocket 4.0 23:23:44 10° NNW 23:28:28 64° WSW 23:32:10 16° S
Nadezhda 1 Rocket 3.9 23:26:03 10° N 23:32:10 88° E 23:37:15 16° S
Cosmos 1980 3.7 23:27:35 10° NNW 23:33:17 89° ENE 23:37:35 18° SSE
Cosmos 1726 3.6 23:30:32 10° NNW 23:33:57 33° W 23:37:22 10° SSW
SAR-Lupe-2 3.7 23:31:37 18° S 23:34:10 68° WSW 23:37:45 10° NNW
Spot 4 3.9 23:31:38 17° SSE 23:35:26 82° WSW 23:40:20 10° NNW
Cosmos 1271 Rocket 3.4 23:31:45 10° NNW 23:35:27 49° W 23:38:28 15° SSW
SL-14 R/B 4.1 23:33:11 10° SSW 23:37:01 49° WNW 23:40:57 10° N
Cosmos 1703 3.3 23:34:08 13° SSW 23:37:32 84° W 23:41:29 10° N
Terra 2.1 23:34:39 15° S 23:38:32 62° WSW 23:43:17 10° NNW
Cosmos 1666 Rocket 4.4 23:34:48 10° SSW 23:39:04 49° WNW 23:43:25 10° N
COSMOS 2455 3.2 23:34:44 10° NNW 23:40:43 59° NE 23:45:49 14° SE
Cosmos 1346 3.3 23:39:16 25° SSE 23:40:44 54° E 23:43:44 10° NNE
Cosmos 2219 3.7 23:35:13 10° SW 23:40:55 64° WNW 23:46:40 10° NNE
Spot 2 4.5 23:36:23 10° NNE 23:41:34 71° ESE 23:45:45 15° S
Cosmos 1898 Rocket 3.5 23:37:46 10° SSW 23:42:58 85° WNW 23:48:13 10° NNE
Cosmos 2150 Rocket 4.2 23:39:11 10° SSW 23:44:39 82° WNW 23:50:10 10° NNE
CZ-4B R/B 3.8 23:44:14 10° E 23:46:18 15° ENE 23:48:21 10° NNE
Cosmos 2237 Rocket 2.2 23:40:42 10° NNW 23:46:26 81° WSW 23:50:31 20° SSE
BREEZE-M TANK 4.2 23:30:38 10° WSW 23:47:42 49° S 23:51:52 10° E
Cosmos 1745 Rocket 4.1 23:42:06 10° S 23:48:18 82° W 23:54:31 10° N
DMSP B5D2-2 4.1 23:45:54 10° NNE 23:51:10 86° WNW 23:56:03 12° SSW
USA 234 4.3 23:45:21 10° ENE 23:51:34 48° N 23:57:48 10° WNW
Cosmos 1703 Rocket 4.0 23:47:46 10° N 23:52:01 49° ENE 23:54:35 22° SE
Cosmos 1470 Rocket 3.5 23:48:55 16° SSW 23:52:22 83° W 23:56:44 10° N
Cosmos 2221 Rocket 4.2 23:48:20 10° N 23:52:47 49° ENE 23:55:32 21° SE
Cosmos 220 Rocket 4.0 23:48:52 13° SSW 23:52:47 83° ESE 23:57:16 10° NNE
Okean 1-7 4.1 23:49:15 10° N 23:53:09 33° ENE 23:55:37 18° SE
Iridium 2 4.4 23:50:00 13° SSW 23:53:14 52° W 23:57:02 10° N
Cosmos 2082 4.0 23:49:09 16° S 23:53:30 51° ESE 23:59:02 10° NE
Cosmos 1933 Rocket 3.6 23:50:13 16° SSW 23:53:48 84° W 23:58:18 10° N
IGS 5A 4.3 23:51:10 16° SSW 23:54:13 44° W 23:58:15 10° NNW
